TimeEST,TemperatureF,Dew PointF,Humidity,Sea Level PressureIn,VisibilityMPH,Wind Direction,Wind SpeedMPH,Gust SpeedMPH,PrecipitationIn,Events,Conditions,WindDirDegrees,DateUTC
12:54 AM,28.9,26.1,89,30.13,8.0,Calm,Calm,-,N/A,,Clear,0,2013-12-05 05:54:00
1:18 AM,30.2,26.6,86,30.11,7.0,Calm,Calm,-,N/A,,Mostly Cloudy,0,2013-12-05 06:18:00
1:54 AM,33.1,28.9,85,30.13,8.0,Calm,Calm,-,N/A,,Overcast,0,2013-12-05 06:54:00
2:02 AM,33.8,28.4,81,30.10,8.0,Calm,Calm,-,N/A,,Overcast,0,2013-12-05 07:02:00
2:51 AM,33.8,30.2,87,30.09,9.0,Calm,Calm,-,N/A,,Overcast,0,2013-12-05 07:51:00
2:54 AM,35.1,30.0,82,30.11,9.0,Calm,Calm,-,N/A,,Overcast,0,2013-12-05 07:54:00
3:54 AM,35.1,30.0,82,30.09,9.0,Calm,Calm,-,N/A,,Overcast,0,2013-12-05 08:54:00
4:54 AM,39.9,34.0,79,30.09,8.0,NNE,4.6,-,N/A,,Overcast,20,2013-12-05 09:54:00
5:54 AM,46.9,39.0,74,30.06,8.0,ENE,3.5,-,N/A,,Mostly Cloudy,60,2013-12-05 10:54:00
6:01 AM,46.4,39.2,76,30.04,8.0,Variable,3.5,-,N/A,,Mostly Cloudy,0,2013-12-05 11:01:00
6:19 AM,46.4,39.2,76,30.04,8.0,Calm,Calm,-,N/A,,Overcast,0,2013-12-05 11:19:00
6:45 AM,46.4,39.2,76,30.05,7.0,Calm,Calm,-,N/A,,Mostly Cloudy,0,2013-12-05 11:45:00
6:54 AM,46.0,39.9,79,30.06,8.0,NNE,4.6,-,N/A,,Mostly Cloudy,30,2013-12-05 11:54:00
7:54 AM,48.0,41.0,77,30.06,8.0,Variable,4.6,-,N/A,,Overcast,0,2013-12-05 12:54:00
8:54 AM,50.0,43.0,77,30.04,10.0,NE,4.6,-,N/A,,Overcast,40,2013-12-05 13:54:00
9:21 AM,51.8,44.6,76,30.01,10.0,Variable,3.5,-,N/A,,Scattered Clouds,0,2013-12-05 14:21:00
9:54 AM,54.0,46.0,75,30.03,10.0,Variable,5.8,17.3,N/A,,Mostly Cloudy,0,2013-12-05 14:54:00
10:25 AM,53.6,46.4,77,30.03,10.0,South,9.2,-,N/A,,Overcast,180,2013-12-05 15:25:00
10:54 AM,55.0,46.9,74,30.03,10.0,South,9.2,19.6,N/A,,Overcast,170,2013-12-05 15:54:00
11:54 AM,55.0,46.9,74,29.98,10.0,South,15.0,23.0,N/A,,Overcast,180,2013-12-05 16:54:00
12:54 PM,54.0,46.9,77,29.96,10.0,South,12.7,23.0,N/A,,Overcast,170,2013-12-05 17:54:00
1:54 PM,55.0,48.0,77,29.96,10.0,SSE,8.1,19.6,N/A,,Overcast,160,2013-12-05 18:54:00
2:54 PM,55.9,48.9,77,29.93,10.0,Calm,Calm,-,N/A,,Overcast,0,2013-12-05 19:54:00
3:54 PM,57.0,48.9,74,29.92,10.0,Variable,4.6,-,N/A,,Overcast,0,2013-12-05 20:54:00
4:54 PM,57.0,50.0,77,29.92,10.0,Variable,4.6,-,N/A,,Overcast,0,2013-12-05 21:54:00
5:54 PM,57.0,51.1,81,29.91,10.0,SSW,4.6,16.1,0.00,,Overcast,200,2013-12-05 22:54:00
6:54 PM,57.0,51.1,81,29.90,10.0,Calm,Calm,-,N/A,,Mostly Cloudy,0,2013-12-05 23:54:00
7:54 PM,57.9,51.1,78,29.88,10.0,WSW,6.9,-,N/A,,Mostly Cloudy,240,2013-12-06 00:54:00
8:54 PM,55.9,50.0,80,29.88,10.0,Calm,Calm,-,N/A,,Mostly Cloudy,0,2013-12-06 01:54:00
9:54 PM,57.0,51.1,81,29.90,10.0,Calm,Calm,-,N/A,,Mostly Cloudy,0,2013-12-06 02:54:00
10:02 PM,57.2,51.8,82,29.89,10.0,SSW,4.6,-,N/A,,Overcast,210,2013-12-06 03:02:00
10:28 PM,57.2,51.8,82,29.89,10.0,SSW,4.6,-,N/A,,Overcast,200,2013-12-06 03:28:00
10:54 PM,57.0,51.1,81,29.89,10.0,Variable,4.6,-,N/A,,Overcast,0,2013-12-06 03:54:00
11:54 PM,57.0,51.1,81,29.89,10.0,SSW,3.5,-,N/A,,Overcast,200,2013-12-06 04:54:00